Le nostre stazioni meteo in Italia

Pubblicità
Il mio iltempo24.it
Chillingham Barns, Gran Bretagna (99196): Temperatura & dewpoint: 12.03.2019 19:00:00 - 18.03.2019 19:00:00 (GMT)Chillingham Barns, Gran Bretagna (99196): precipitazioni: 12.03.2019 19:00:00 - 18.03.2019 19:00:00 (GMT)
Data & Tempo tt [°C] td [°C] rr [mm]
18.03.2019 19:00:00 - - -
18.03.2019 18:00:00 7,0 2,6 0,0
18.03.2019 17:00:00 8,9 3,1 0,0
18.03.2019 16:00:00 8,8 3,4 0,0
18.03.2019 15:00:00 7,1 5,1 0,6
18.03.2019 14:00:00 8,3 2,6 0,0
18.03.2019 13:00:00 9,1 2,6 0,0
18.03.2019 12:00:00 8,8 2,0 0,0
18.03.2019 11:00:00 7,7 2,7 0,0
18.03.2019 10:00:00 7,1 1,8 0,0
18.03.2019 09:00:00 4,7 1,2 0,0
18.03.2019 08:00:00 2,3 -0,1 0,0
18.03.2019 07:00:00 -0,9 -2,8 0,0
18.03.2019 06:00:00 0,2 -2,3 0,0
18.03.2019 05:00:00 1,2 -1,9 0,0
18.03.2019 04:00:00 1,4 -2,5 0,0
18.03.2019 03:00:00 2,6 -3,4 0,0
18.03.2019 02:00:00 2,6 -3,1 0,0
18.03.2019 01:00:00 3,1 -2,8 0,0
18.03.2019 00:00:00 4,0 -2,1 0,0
17.03.2019 23:00:00 3,9 -2,0 0,0
17.03.2019 22:00:00 3,6 -1,6 0,0
17.03.2019 21:00:00 4,6 -1,3 0,0
17.03.2019 20:00:00 5,1 0,2 0,0
17.03.2019 19:00:00 4,7 -0,1 0,0
17.03.2019 18:00:00 4,8 1,8 0,0
17.03.2019 17:00:00 5,5 1,5 0,6
17.03.2019 16:00:00 6,8 1,4 0,0
17.03.2019 15:00:00 7,4 2,8 0,6
17.03.2019 14:00:00 7,8 0,9 0,0
17.03.2019 13:00:00 8,7 2,1 0,0
17.03.2019 12:00:00 7,9 -0,2 0,0
17.03.2019 11:00:00 7,0 0,0 0,0
17.03.2019 10:00:00 6,1 0,3 0,0
17.03.2019 09:00:00 4,4 -0,3 0,0
17.03.2019 08:00:00 3,3 -1,0 0,0
17.03.2019 07:00:00 2,5 -1,4 0,0
17.03.2019 06:00:00 2,5 -1,1 0,0
17.03.2019 05:00:00 2,3 -1,1 0,0
17.03.2019 04:00:00 2,7 -0,9 0,0
17.03.2019 03:00:00 2,4 -0,9 0,0
17.03.2019 02:00:00 2,4 -0,9 0,0
17.03.2019 01:00:00 2,5 -0,7 0,0
17.03.2019 00:00:00 2,6 -0,6 0,0
16.03.2019 23:00:00 2,6 -0,5 0,0
16.03.2019 22:00:00 2,8 -0,7 0,0
16.03.2019 21:00:00 2,9 -0,2 0,0
16.03.2019 20:00:00 3,2 0,4 0,0
16.03.2019 19:00:00 3,0 0,2 0,0
16.03.2019 18:00:00 4,3 2,0 0,0
16.03.2019 17:00:00 9,3 5,0 0,0
16.03.2019 16:00:00 10,7 6,9 0,0
16.03.2019 15:00:00 10,8 7,7 0,0
16.03.2019 14:00:00 9,6 8,0 0,0
16.03.2019 13:00:00 5,5 4,9 0,4
16.03.2019 12:00:00 2,5 2,3 4,2
16.03.2019 11:00:00 1,3 1,0 3,4
16.03.2019 10:00:00 0,8 0,5 1,8
16.03.2019 09:00:00 0,2 -0,1 0,0
16.03.2019 08:00:00 0,5 0,1 0,8
16.03.2019 07:00:00 0,7 0,3 1,4
16.03.2019 06:00:00 1,0 0,2 2,2
16.03.2019 05:00:00 3,1 1,6 0,8
16.03.2019 04:00:00 4,3 0,9 0,0
16.03.2019 03:00:00 4,1 0,6 0,0
16.03.2019 02:00:00 4,2 0,3 0,0
16.03.2019 01:00:00 4,6 0,2 0,0
16.03.2019 00:00:00 4,8 -0,1 0,0
15.03.2019 23:00:00 4,7 -0,1 0,0
15.03.2019 22:00:00 4,6 0,2 0,0
15.03.2019 21:00:00 4,7 -0,2 0,0
15.03.2019 20:00:00 4,9 -0,4 0,0
15.03.2019 19:00:00 5,0 -0,5 0,0
15.03.2019 18:00:00 5,2 -0,5 0,0
15.03.2019 17:00:00 6,6 -1,3 0,0
15.03.2019 16:00:00 7,4 0,5 0,0
15.03.2019 15:00:00 8,6 -1,7 0,0
15.03.2019 14:00:00 8,3 1,1 0,0
15.03.2019 13:00:00 7,9 1,9 0,2
15.03.2019 12:00:00 7,4 1,6 0,0
15.03.2019 11:00:00 5,0 1,9 0,6
15.03.2019 10:00:00 7,7 1,7 0,0
15.03.2019 09:00:00 7,5 1,7 0,0
15.03.2019 08:00:00 7,4 2,4 0,0
15.03.2019 07:00:00 7,5 3,2 0,0
15.03.2019 06:00:00 8,4 5,5 0,2
15.03.2019 05:00:00 10,0 6,2 0,0
15.03.2019 04:00:00 8,0 5,7 0,0
15.03.2019 03:00:00 6,5 4,5 0,0
15.03.2019 02:00:00 6,5 3,8 0,0
15.03.2019 01:00:00 6,5 3,0 0,0
15.03.2019 00:00:00 6,4 2,6 0,0
14.03.2019 23:00:00 6,9 2,4 0,0
14.03.2019 22:00:00 6,0 2,7 0,0
14.03.2019 21:00:00 6,1 1,8 0,0
14.03.2019 20:00:00 6,6 1,7 0,0
14.03.2019 19:00:00 7,2 1,6 0,0
14.03.2019 18:00:00 7,6 1,8 0,0
14.03.2019 17:00:00 8,7 1,6 0,0
14.03.2019 16:00:00 9,4 1,4 0,0
14.03.2019 15:00:00 9,8 2,3 0,0
14.03.2019 14:00:00 11,1 3,1 0,0
14.03.2019 13:00:00 10,2 2,3 0,0
14.03.2019 12:00:00 9,8 2,4 0,0
14.03.2019 11:00:00 9,5 2,2 0,0
14.03.2019 10:00:00 9,2 3,7 0,0
14.03.2019 09:00:00 8,3 4,2 0,0
14.03.2019 08:00:00 7,0 4,3 0,4
14.03.2019 07:00:00 6,9 5,3 2,8
14.03.2019 06:00:00 7,9 5,0 0,0
14.03.2019 05:00:00 7,7 4,7 0,0
14.03.2019 04:00:00 8,2 4,3 0,0
14.03.2019 03:00:00 8,0 4,1 0,0
14.03.2019 02:00:00 7,9 4,0 0,0
14.03.2019 01:00:00 7,6 3,7 0,0
14.03.2019 00:00:00 7,1 3,5 0,0
13.03.2019 23:00:00 7,0 3,1 0,0
13.03.2019 22:00:00 6,4 2,6 0,0
13.03.2019 21:00:00 6,6 2,3 0,0
13.03.2019 20:00:00 6,8 1,3 0,0
13.03.2019 19:00:00 7,1 1,4 0,0
13.03.2019 18:00:00 7,6 2,1 0,0
13.03.2019 17:00:00 8,6 1,8 0,0
13.03.2019 16:00:00 10,0 2,3 0,0
13.03.2019 15:00:00 11,2 2,6 0,0
13.03.2019 14:00:00 11,5 2,0 0,0
13.03.2019 13:00:00 10,5 0,9 0,0
13.03.2019 12:00:00 10,0 0,0 0,0
13.03.2019 11:00:00 9,1 1,6 0,0
13.03.2019 10:00:00 8,0 2,0 0,0
13.03.2019 09:00:00 7,4 1,5 0,0
13.03.2019 08:00:00 6,7 1,7 0,0
13.03.2019 07:00:00 6,2 1,4 0,0
13.03.2019 06:00:00 6,5 1,5 0,0
13.03.2019 05:00:00 6,7 1,3 0,0
13.03.2019 04:00:00 6,9 1,0 0,0
13.03.2019 03:00:00 6,9 1,7 0,0
13.03.2019 02:00:00 6,3 2,6 0,0
13.03.2019 01:00:00 6,5 3,3 1,0
13.03.2019 00:00:00 5,7 3,9 1,0
12.03.2019 23:00:00 5,5 3,4 1,0
12.03.2019 22:00:00 5,2 2,8 0,4
12.03.2019 21:00:00 5,5 2,4 0,2
12.03.2019 20:00:00 5,3 2,8 0,0
12.03.2019 19:00:00 4,8 1,7 0,0

tt = Temperatura
td = dewpoint
rr = precipitazioni

Stazioni seguenti

WeatherPro
AMSI
MeteoEarth